SCP
0 0 0 0 0 1 1 0 0 0 0 0 0 0 1 1 0 0 0 0 1 1 0 0 0 0 0 0 0 0 0 0 0 0 0 0 0 0 0 0 0 0 0
0 0 0 0 1 1 0 0 0 0 0 0 0 0 0 0 0 0 0 0 0 0 0 0 0 0 0 0 0 0 0 0 0 0 0 0 0 0 0 0 0 0 0
1 0 0 0 0 0 0 0 0 0 0 0 0 0 0 0 0 0 0 0 0 0 0 0 0 0 0 0 0 0 0 0 0 0 0 0 0 0 0 0 0 0 0
0 0 1 1 0 0 0 0 0 0 0 0 0 0 0 0 0 0 0 0 0 0 0 0 0 0 0 0 0 0 0 0 0 0 0 0 0 0 0 0 0 0 0
0 0 1 1 0 0 0 0 0 0 0 0 0 0 0 0 0 0 0 0 0 0 0 0 0 0 0 0 0 0 0 0 0 0 0 0 0 0 0 0 0 0 0
0 0 1 1 0 0 0 0 0 0 0 0 0 0 0 0 0 0 0 0 0 0 0 0 0 0 0 0 0 0 0 0 0 0 0 0 0 0 0 0 0 0 0
1 1 1 1 0 0 0 0 0 0 0 0 0 0 0 0 0 0 0 0 0 0 0 0 0 0 0 0 0 0 0 0 0 0 0 0 0 0 0 0 0 0 0
1 1 1 0 0 0 0 0 0 0 0 0 0 0 0 0 0 0 0 0 0 0 0 0 0 0 0 0 0 0 0 0 0 0 0 0 0 0 0 0 0 0 0
1 1 0 0 0 0 0 0 0 0 0 0 0 0 0 0 0 0 0 0 0 0 0 0 0 0 0 0 0 0 0 0 0 0 0 0 0 0 0 0 0 0 0
1 0 0 0 0 0 0 0 0 0 0 0 0 0 0 0 0 0 0 0 0 0 0 0 0 0 0 0 0 0 0 0 0 0 0 0 0 0 0 0 0 0 0
0 0 0 0 0 0 0 0 0 0 0 0 0 0 0 0 0 0 0 0 0 0 0 0 0 0 0 0 0 0 0 0 0 0 0 0 0 0 0 0 0 0 0
0 0 0 0 0 0 0 0 0 0 0 0 0 0 0 0 0 0 0 0 0 0 0 0 0 0 0 0 0 0 0 0 0 0 0 0 0 0 0 0 0 0 0
0 0 0 0 0 0 0 0 0 0 0 0 0 0 0 0 0 0 0 0 0 0 0 0 0 0 0 0 0 0 0 0 0 0 0 0 0 0 0 0 0 0 0
0 0 0 0 0 0 0 0 0 0 0 0 0 0 0 0 0 0 0 0 0 0 0 0 0 0 0 0 0 0 0 0 0 0 0 0 0 0 0 0 0 0 0
0 0 0 0 0 0 0 0 0 0 0 0 0 0 0 0 0 0 0 0 0 0 0 0 0 0 0 0 0 0 0 0 0 0 0 0 0 0 0 0 0 0 0
0 0 0 0 0 0 0 0 0 0 0 0 0 0 0 0 0 0 0 0 0 0 0 0 0 0 0 0 0 0 0 0 0 0 0 0 0 0 0 0 0 0 0
0 0 0 0 0 0 0 0 0 0 0 0 0 0 0 0 0 0 0 0 0 0 0 0 0 0 0 0 0 0 0 0 0 0 0 0 0 0 0 0 0 0 0
0 0 0 0 0 0 0 0 0 0 0 0 0 0 0 0 0 0 0 0 0 0 0 0 0 0 0 0 0 0 0 0 0 0 0 0 0 0 0 0 0 0 0
0 0 0 0 0 0 0 0 0 0 0 0 0 0 0 0 0 0 0 0 0 0 0 0 0 0 0 0 0 0 0 0 0 0 0 0 0 0 0 0 0 0 0
0 0 0 0 0 0 0 0 0 0 0 0 0 0 0 0 0 0 0 0 0 0 0 0 0 0 0 0 0 0 0 0 0 0 0 0 0 0 0 0 0 0 0
0 0 0 0 0 0 0 0 0 0 0 0 0 0 0 0 0 0 0 0 0 0 0 0 0 0 0 0 0 0 0 0 0 0 0 0 0 0 0 0 0 0 0
0 0 0 0 0 0 0 0 0 0 0 0 0 0 0 0 0 0 0 0 0 0 0 0 0 0 0 0 0 0 0 0 0 0 0 0 0 0 0 0 0 0 0
0 0 0 0 0 0 0 0 0 0 0 0 0 0 0 0 0 0 0 0 0 0 0 0 0 0 0 0 0 0 0 0 0 0 0 0 0 0 0 0 0 0 0
0 0 0 0 0 0 0 0 0 0 0 0 0 0 0 0 0 0 0 0 0 0 0 0 0 0 0 0 0 0 0 0 0 0 0 0 0 0 0 0 0 0 0
0 0 0 0 0 0 0 0 0 0 0 0 0 0 0 0 0 0 0 0 0 0 0 0 0 0 0 0 0 0 0 0 0 0 0 0 0 0 0 0 0 0 0
0 0 0 0 0 0 0 0 0 0 0 0 0 0 0 0 0 0 0 0 0 0 0 0 0 0 0 0 0 0 0 0 0 0 0 0 0 0 0 0 0 0 0
Wind_Speed
7 7 7 8 8 8 8 8 7 7 8 8 9 9 9 10 10 10 10 10 12 11 10 11 11 8 7 6 5 5 4 4 4 2 2 2 3 4 3 3 3 2 2
6 7 7 7 7 7 8 7 6 7 7 8 9 9 9 9 10 11 11 11 12 12 11 11 11 9 9 7 7 6 5 5 5 5 2 2 3 4 4 3 2 2 1
6 7 7 7 7 7 8 6 6 6 7 8 8 9 9 9 9 11 11 11 11 12 12 12 12 11 10 8 8 7 5 5 4 5 4 2 2 3 3 2 2 1 1
7 7 7 7 7 8 7 6 6 6 6 8 8 8 8 9 9 9 10 10 10 10 10 11 11 12 12 10 8 8 7 6 5 5 4 3 3 3 3 3 2 1 1
7 7 7 7 7 7 6 6 6 5 6 7 7 7 8 8 8 8 9 9 10 9 9 9 10 12 13 11 8 9 9 7 6 5 4 3 3 4 4 3 3 2 1
7 7 7 6 6 6 5 5 5 5 5 5 7 7 8 7 8 10 10 9 9 10 9 8 9 11 13 14 13 13 12 10 8 6 5 5 5 5 4 4 4 3 1
7 7 7 5 6 5 5 5 5 5 5 5 6 7 8 8 10 11 12 9 9 9 9 9 7 8 11 9 10 11 10 10 11 9 8 7 7 7 7 5 4 3 2
7 7 6 6 6 5 4 5 6 5 4 5 5 6 6 7 10 10 11 9 8 8 9 10 9 9 10 10 9 7 6 5 7 6 6 6 6 7 7 6 6 5 3
7 7 7 6 6 5 5 6 5 5 5 4 4 5 6 7 9 10 9 7 7 7 8 9 10 9 13 15 11 9 7 5 6 10 10 9 11 12 10 7 6 4 2
8 8 7 6 5 6 6 6 5 5 5 3 3 4 5 6 9 9 8 6 7 6 6 7 11 12 15 16 12 11 10 7 8 8 8 9 8 9 10 6 6 5 3
8 7 7 6 5 6 6 5 5 4 3 2 2 3 4 5 7 10 8 6 7 7 6 6 7 13 16 16 13 10 12 11 9 9 8 7 6 5 4 3 3 4 4
7 7 7 6 5 5 5 6 4 3 3 2 2 1 2 3 5 8 9 7 7 7 6 6 7 13 15 15 11 13 16 13 8 8 7 6 5 5 4 4 5 4 4
7 7 7 6 5 5 5 5 4 2 2 2 2 1 1 1 4 6 7 8 8 5 5 9 11 13 13 11 14 17 14 9 8 8 7 5 4 5 5 5 5 5 6
8 7 7 6 5 4 4 4 3 2 2 1 2 2 1 1 2 3 4 6 8 6 6 10 12 12 10 11 11 10 6 7 8 8 7 6 6 5 4 4 4 3 4
7 7 6 5 4 4 4 3 3 3 3 3 2 2 3 2 3 3 4 5 5 6 7 6 6 7 7 6 6 6 6 7 7 7 8 7 7 6 4 4 3 3 3
6 6 5 4 4 3 3 4 4 5 6 5 5 4 3 4 4 4 4 7 9 11 8 7 7 7 7 7 7 7 6 6 7 8 8 7 7 6 6 4 3 4 4
6 6 5 4 4 3 3 3 4 4 3 3 4 4 4 4 4 4 6 8 10 10 7 7 7 7 7 7 7 7 6 6 7 8 8 8 7 7 6 5 4 4 3
6 7 7 4 4 4 3 3 3 3 3 1 0 2 2 3 4 6 7 7 6 6 6 7 7 7 7 7 7 7 7 7 7 7 7 7 7 7 6 6 5 5 4
6 5 5 4 4 4 3 3 3 3 2 1 0 1 2 3 4 5 5 4 5 5 6 6 6 7 7 7 7 7 7 7 8 7 7 8 7 7 6 6 5 7 5
5 9 8 5 4 3 3 3 3 2 1 1 1 1 2 2 2 2 2 3 4 5 6 6 6 6 7 8 8 7 7 7 8 7 7 7 7 7 7 7 6 5 4
5 6 9 6 4 4 3 3 2 2 2 1 1 2 2 2 2 3 2 3 4 5 6 6 7 7 7 7 8 8 8 7 7 7 7 7 7 7 6 6 6 5 5
4 4 4 4 4 3 3 2 2 2 2 2 1 1 1 1 2 2 2 2 3 4 5 6 6 6 7 7 9 9 9 8 8 8 8 7 7 7 7 6 6 5 5
4 5 5 4 4 5 4 2 2 2 2 2 2 1 1 2 2 2 2 3 4 4 5 6 7 6 6 5 6 8 9 9 8 9 10 9 8 7 7 7 7 7 6
5 5 5 4 4 3 3 2 2 2 2 2 2 1 2 2 2 3 2 3 4 5 5 5 6 9 10 8 6 6 6 8 8 8 11 10 9 8 7 7 7 7 6
5 5 4 4 4 3 3 2 2 2 2 2 2 2 2 3 3 3 3 4 5 6 6 6 6 8 11 11 9 8 13 15 12 9 8 9 10 9 8 8 7 7 6
5 5 4 3 3 3 3 2 2 2 2 2 2 2 2 3 3 4 4 4 5 6 6 6 8 9 11 9 11 15 17 17 16 15 10 8 9 8 9 7 9 8 7
Wind_Direction
281 283 281 277 274 273 260 245 240 235 223 214 214 208 206 204 198 197 201 198 195 192 190 192 193 183 180 181 174 170 174 167 184 185 141 142 156 166 156 150 158 169 191
279 282 282 280 277 275 270 256 246 243 229 216 210 208 206 204 200 197 200 198 195 192 191 192 192 184 183 180 179 180 181 177 172 179 160 158 164 167 153 157 158 155 159
288 287 287 286 281 276 274 266 252 245 230 214 206 209 208 206 202 200 199 197 196 193 190 192 191 182 185 182 180 180 179 173 169 164 163 150 144 145 141 141 132 120 113
289 286 283 280 277 275 273 272 256 245 232 213 205 207 210 208 204 202 197 196 196 193 191 192 191 187 185 182 181 180 172 166 158 154 153 148 142 138 143 153 153 126 92
291 284 279 279 280 275 272 274 265 252 244 224 206 207 208 205 203 198 194 194 191 190 190 192 191 188 183 181 179 177 171 170 163 162 161 152 159 160 176 161 156 129 102
296 287 285 285 286 276 271 274 270 261 249 229 207 204 208 213 204 200 192 189 189 188 186 187 186 183 181 179 178 175 174 173 175 173 174 177 183 173 153 148 139 136 192
299 295 294 290 285 276 276 279 272 264 250 235 216 207 208 206 198 194 188 186 188 189 185 183 183 182 174 172 171 167 171 174 176 175 176 182 175 173 158 152 154 150 166
302 304 306 301 293 289 278 274 275 273 259 238 223 207 202 200 193 189 181 181 187 189 187 183 179 176 174 164 159 157 159 170 175 171 169 169 162 157 159 152 141 115 91
307 307 307 303 300 300 285 277 276 275 268 239 207 201 199 199 190 182 177 175 181 187 186 181 176 176 168 157 154 154 152 145 127 131 130 130 133 135 134 122 125 121 126
306 304 303 300 299 296 286 280 278 272 265 238 218 198 198 198 189 182 175 175 178 179 177 177 176 173 166 161 162 161 162 160 143 130 119 112 115 124 127 138 147 140 135
304 303 301 301 297 291 295 287 280 276 269 233 213 202 198 196 188 184 183 181 178 176 175 174 171 167 167 166 166 168 165 153 145 137 129 119 110 107 103 98 114 138 142
306 305 300 299 297 297 292 291 283 267 258 218 179 192 195 189 187 185 187 189 176 175 176 170 163 163 164 164 162 154 147 141 138 135 133 133 130 126 116 103 94 86 91
308 305 303 298 291 289 289 294 290 268 251 224 179 197 220 205 177 175 177 175 170 168 164 159 156 158 155 155 151 147 145 143 142 141 144 143 136 134 125 111 92 85 74
304 302 301 299 299 302 297 288 279 259 252 227 198 199 212 216 175 161 163 159 153 145 140 139 139 141 139 138 141 142 144 149 147 145 139 133 126 127 129 128 122 112 90
301 299 302 299 295 298 295 288 284 273 254 246 217 197 201 215 214 211 185 172 165 154 140 134 137 138 140 140 139 139 139 140 137 135 135 136 137 136 134 128 120 112 109
304 304 300 299 296 298 304 312 299 282 282 266 249 230 231 219 210 201 183 167 158 152 143 149 151 152 153 152 151 147 145 147 144 140 140 142 145 144 136 126 118 122 123
295 298 296 294 292 295 297 299 312 321 304 262 245 235 218 195 189 172 160 155 156 154 148 156 158 157 156 153 154 152 150 148 143 142 144 145 144 141 137 135 133 127 124
290 292 290 285 281 282 281 277 277 286 298 300 167 185 185 177 164 155 148 140 152 158 155 158 159 156 154 153 153 150 145 142 141 143 145 145 143 141 139 140 142 140 138
287 287 286 281 274 273 274 274 268 268 269 267 121 123 136 133 137 148 148 150 160 160 156 151 150 152 151 149 148 147 147 145 146 146 146 145 145 142 141 142 142 140 132
284 287 289 283 274 270 268 269 266 260 255 237 214 177 138 122 128 139 143 152 156 156 152 147 146 147 148 146 145 144 143 142 145 145 145 145 144 143 144 144 144 143 142
282 287 288 286 274 263 257 253 255 249 242 236 236 211 210 179 165 161 167 161 157 153 150 146 145 146 145 143 143 144 144 145 147 145 144 144 143 140 139 139 138 135 133
273 276 276 275 273 265 259 247 242 244 236 228 236 217 213 189 167 161 155 147 140 144 147 146 145 147 150 151 150 149 148 148 148 146 143 141 140 138 137 135 133 132 133
265 267 270 270 268 263 262 243 228 228 228 224 220 214 188 165 160 151 144 139 137 139 140 141 141 140 138 138 146 152 152 154 153 150 145 142 140 140 139 138 138 137 137
262 261 261 260 261 255 243 232 223 224 225 218 212 208 183 158 146 141 135 134 135 134 135 136 139 141 140 137 138 138 137 137 138 143 142 140 139 138 136 135 137 138 137
260 257 255 249 250 248 236 222 214 212 221 219 204 185 161 148 140 137 132 130 128 128 129 130 132 136 139 139 140 139 138 136 136 135 133 132 134 135 135 135 135 133 130
256 250 248 244 240 238 228 218 213 209 207 204 188 172 156 146 138 130 126 128 128 126 126 126 131 133 135 132 134 137 137 136 134 134 133 131 132 134 134 132 132 130 130